| time (UTC) | temp F | wind direction | speed MPH | gust MPH | rain 1hr in | rain 24hr in | rain mn in | humidity % | barometer mb |
| 20260505073109 | 46 | 276 | 2.0 | 6.0 | 0.00 | 0.01 | 0.00 | 85 | 1008.3 |
| 20260505071601 | 47 | 295 | 0.0 | 4.0 | 0.00 | 0.01 | 0.00 | 83 | 1008.3 |
| 20260505070057 | 48 | 272 | 1.0 | 3.0 | 0.00 | 0.01 | 0.00 | 81 | 1008.2 |
| 20260505064559 | 49 | 284 | 2.0 | 4.0 | 0.00 | 0.01 | 0.00 | 80 | 1008.2 |
| 20260505063100 | 49 | 0 | 1.0 | 8.0 | 0.00 | 0.01 | 0.00 | 80 | 1008.2 |
| 20260505061628 | 49 | 263 | 2.0 | 9.0 | 0.00 | 0.01 | 0.00 | 82 | 1008.1 |
| 20260505060059 | 47 | 248 | 2.0 | 7.0 | 0.00 | 0.01 | 0.00 | 86 | 1008.1 |
| 20260505054611 | 46 | 0 | 1.0 | 4.0 | 0.00 | 0.01 | 0.00 | 89 | 1008.0 |
| 20260505053059 | 45 | 271 | 1.0 | 4.0 | 0.00 | 0.01 | 0.00 | 93 | 1007.9 |
| 20260505051559 | 42 | 0 | 0.0 | 2.0 | 0.00 | 0.01 | 0.00 | 92 | 1007.8 |
| 20260505041558 | 43 | 0 | 0.0 | 2.0 | 0.00 | 0.01 | 0.00 | 91 | 1007.7 |
| 20260505034558 | 44 | 0 | 0.0 | 0.0 | 0.00 | 0.01 | 0.01 | 91 | 1007.6 |
| 20260505033056 | 44 | 0 | 0.0 | 0.0 | 0.00 | 0.01 | 0.01 | 91 | 1007.7 |
| 20260505031601 | 44 | 0 | 0.0 | 0.0 | 0.00 | 0.01 | 0.01 | 91 | 1007.6 |
| 20260505030108 | 44 | 0 | 0.0 | 2.0 | 0.00 | 0.01 | 0.01 | 90 | 1007.6 |
| 20260505024609 | 44 | 0 | 0.0 | 2.0 | 0.00 | 0.01 | 0.01 | 90 | 1007.8 |
| 20260505023057 | 44 | 0 | 0.0 | 2.0 | 0.00 | 0.01 | 0.01 | 89 | 1007.8 |
| 20260505021612 | 45 | 128 | 0.0 | 2.0 | 0.00 | 0.01 | 0.01 | 89 | 1007.6 |
| 20260505014606 | 46 | 0 | 0.0 | 1.0 | 0.00 | 0.01 | 0.01 | 88 | 1007.7 |
| 20260505013057 | 46 | 0 | 0.0 | 1.0 | 0.00 | 0.01 | 0.01 | 86 | 1007.5 |
| 20260505011557 | 47 | 128 | 1.0 | 2.0 | 0.00 | 0.01 | 0.01 | 85 | 1007.4 |
| 20260505010054 | 48 | 0 | 0.0 | 1.0 | 0.00 | 0.01 | 0.01 | 83 | 1007.2 |
| 20260505004601 | 49 | 0 | 0.0 | 0.0 | 0.00 | 0.01 | 0.01 | 82 | 1007.2 |
| 20260505003056 | 50 | 128 | 1.0 | 3.0 | 0.00 | 0.01 | 0.01 | 80 | 1007.0 |
| 20260505001557 | 51 | 128 | 3.0 | 7.0 | 0.00 | 0.01 | 0.01 | 78 | 1007.0 |
| 20260505000057 | 52 | 0 | 0.0 | 5.0 | 0.00 | 0.01 | 0.01 | 77 | 1006.7 |
| 20260504234556 | 54 | 161 | 0.0 | 2.0 | 0.00 | 0.01 | 0.01 | 76 | 1006.3 |
| 20260504233101 | 55 | 0 | 0.0 | 2.0 | 0.00 | 0.01 | 0.01 | 73 | 1006.0 |
| 20260504231557 | 57 | 161 | 2.0 | 4.0 | 0.00 | 0.01 | 0.01 | 70 | 1005.8 |
| 20260504230056 | 59 | 0 | 0.0 | 2.0 | 0.00 | 0.01 | 0.01 | 66 | 1005.6 |
| 20260504224556 | 59 | 232 | 1.0 | 3.0 | 0.00 | 0.01 | 0.01 | 61 | 1005.4 |
| 20260504223102 | 60 | 246 | 0.0 | 6.0 | 0.00 | 0.01 | 0.01 | 60 | 1005.3 |
| 20260504221608 | 60 | 271 | 2.0 | 7.0 | 0.00 | 0.01 | 0.01 | 59 | 1005.3 |
| 20260504220136 | 60 | 277 | 3.0 | 11.0 | 0.00 | 0.01 | 0.01 | 58 | 1005.2 |
| 20260504214554 | 61 | 196 | 5.0 | 10.0 | 0.00 | 0.01 | 0.01 | 58 | 1005.0 |
| 20260504213117 | 62 | 198 | 3.0 | 9.0 | 0.00 | 0.01 | 0.01 | 59 | 1004.9 |
| 20260504211557 | 62 | 171 | 3.0 | 12.0 | 0.00 | 0.01 | 0.01 | 59 | 1005.0 |
| 20260504204611 | 62 | 269 | 3.0 | 10.0 | 0.00 | 0.01 | 0.01 | 60 | 1005.0 |
| 20260504203057 | 62 | 136 | 4.0 | 9.0 | 0.00 | 0.01 | 0.01 | 58 | 1004.7 |
| 20260504201608 | 62 | 236 | 2.0 | 16.0 | 0.00 | 0.01 | 0.01 | 61 | 1004.8 |
| 20260504200109 | 60 | 217 | 4.0 | 12.0 | 0.00 | 0.01 | 0.01 | 62 | 1004.9 |
| 20260504194559 | 60 | 198 | 5.0 | 10.0 | 0.00 | 0.04 | 0.01 | 65 | 1004.7 |
| 20260504193059 | 58 | 260 | 6.0 | 11.0 | 0.00 | 0.04 | 0.01 | 68 | 1004.9 |
| 20260504191556 | 56 | 259 | 2.0 | 8.0 | 0.01 | 0.04 | 0.01 | 76 | 1005.2 |
| 20260504190057 | 54 | 0 | 3.0 | 9.0 | 0.01 | 0.04 | 0.01 | 80 | 1005.4 |
| 20260504184601 | 52 | 254 | 3.0 | 9.0 | 0.01 | 0.11 | 0.01 | 80 | 1005.7 |
| 20260504183104 | 52 | 189 | 2.0 | 12.0 | 0.01 | 0.11 | 0.01 | 76 | 1006.0 |
| 20260504181604 | 54 | 259 | 4.0 | 12.0 | 0.00 | 0.10 | 0.00 | 69 | 1006.1 |
| 20260504180100 | 56 | 263 | 3.0 | 9.0 | 0.00 | 0.10 | 0.00 | 63 | 1005.7 |
| 20260504174556 | 55 | 193 | 4.0 | 11.0 | 0.00 | 0.17 | 0.00 | 59 | 1005.4 |
| 20260504173101 | 54 | 242 | 6.0 | 11.0 | 0.00 | 0.17 | 0.00 | 61 | 1005.3 |
| 20260504171558 | 55 | 187 | 8.0 | 17.0 | 0.00 | 0.17 | 0.00 | 60 | 1005.4 |
| 20260504081557 | 31 | 300 | 1.0 | 3.0 | 0.00 | 0.89 | 0.00 | 93 | 1006.4 |